Torna al catalogo

NOAA 16 DEB

AttivoSSO
NORAD 41302·DEBRIS·🇺🇸 United States

Lanciato Sep 21, 2000 da Vandenberg Space Force Base

Loading…

Prossimi Passaggi (prossime 24 ore)

TLE

AggiornatoSource: Space-Track

Epoca: Sep 13, 2026, 09:27 UTC

1 41302U 00055HE  26256.39408138  .00002332  00000-0  99220-3 0  9992
2 41302  98.7080 317.8653 0017647 308.5556  51.4042 14.26100952551584

Traccia NOAA 16 DEB in tempo reale con AllMySat

Download on the App Store